Terminal Aerodrome Forecast
Issued by NWS

Home | Current Version | Previous Version | Text Only | Print | Product List | Glossary Off
Versions: 1 2 3 4 5 6 7 8 9 10 11 12 13 14 15 16 17 18 19 20 21 22 23 24 25 26 27 28 29 30 31

000
FTUS43 KBIS 281500 AAC
TAFMOT
TAF AMD
KMOT 281540Z 2816/2912 15009KT P6SM SCT003
     FM281600 17015G22KT P6SM BKN150
     FM290100 24015G22KT P6SM VCTS OVC030CB=

USA.gov is the U.S. government's official web portal to all federal, state and local government web resources and services.